Regional Weather Roundup
Issued by NWS

Home | Current Version | Previous Version | Graphics & Text | Print | Product List | Glossary On
Versions: 1 2 3 4 5 6 7 8 9 10 11 12 13 14 15 16 17 18 19 20 21 22 23 24 25 26 27 28 29 30 31 32 33 34 35 36 37 38 39 40 41 42 43 44 45 46 47 48 49 50
000
ASUS43 KFSD 210202
RWRSD

WEATHER ROUNDUP FOR SOUTH DAKOTA
NATIONAL WEATHER SERVICE SIOUX FALLS SD
900 PM CDT FRI APR 20 2018

NOTE: "FAIR" INDICATES FEW OR NO CLOUDS BELOW 12,000 FEET WITH NO
SIGNIFICANT WEATHER AND/OR OBSTRUCTIONS TO VISIBILITY.


SDZ001>005-009-010-012>017-210300-
NORTHWEST AND NORTH CENTRAL SOUTH DAKOTA

CITY           SKY/WX    TMP DP  RH WIND       PRES   REMARKS
BUFFALO          N/A     44  36  73 S29G37    30.10R
FAITH            N/A     42  41  96 S20       30.24S
MOBRIDGE       CLOUDY    48  36  63 S13       30.27R
$$

SDZ012>016-024>037-041>051-057-063-072>074-210300-
SOUTHWEST AND SOUTH CENTRAL SOUTH DAKOTA

CITY           SKY/WX    TMP DP  RH WIND       PRES   REMARKS
RAPID CTY ARPT CLOUDY    39  38  96 SE13      30.22S
PIERRE         LGT RAIN  43  41  93 S13       30.33R FOG
CUSTER         CLOUDY    32  29  88 SE9G17    30.15S WCI  24
ELLSWORTH AFB  CLOUDY    39  39 100 S16       30.21
PHILIP         CLOUDY    42  41  96 E9        30.28S
PINE RIDGE     LGT RAIN  40  38  93 SE10G18   30.22R FOG
SPEARFISH      CLOUDY    41  37  87 E15       30.16R
WINNER         CLOUDY    41  36  82 E6        30.33S
$$

SDZ004>011-016>023-039-040-210300-
NORTHEAST SOUTH DAKOTA

CITY           SKY/WX    TMP DP  RH WIND       PRES   REMARKS
ABERDEEN       MOCLDY    45  38  76 S7        30.35S
WATERTOWN      CLOUDY    42  38  85 SE6       30.37R
BROOKINGS      MOCLDY    40  36  86 SE8       30.39R
SISSETON         N/A     43  39  86 S7        30.37R
$$

SDZ017-020-022-023-036>040-048>070-210300-
SOUTHEAST SOUTH DAKOTA

CITY           SKY/WX    TMP DP  RH WIND       PRES   REMARKS
SIOUX FALLS    CLOUDY    42  36  79 E7        30.38R
HURON          CLOUDY    44  37  76 SE10      30.35R
CHAMBERLAIN    RAIN      44  44 100 SE3       30.36R
MITCHELL       CLOUDY    41  36  82 E7        30.37R
YANKTON        CLOUDY    47  39  74 E10       30.36R
$$

ABBREVIATIONS USED IN REMARKS
   TC - TEMPERATURE IN CELSIUS
  WCI - WIND CHILL INDEX
   HX - HEAT INDEX
  VSB - VISIBILITY





USA.gov is the U.S. government's official web portal to all federal, state and local government web resources and services.